COSMOS 1455

Last updated on Thu Sep 04 2025 00:02:13 GMT+0000 (Coordinated Universal Time)

1 14032U 83037A 25246.60015627 .06003735 -12439-5 57663-3 0 9996 2 14032 82.4714 318.3821 0010533 262.0749 97.9354 16.38376308318910
UTC large
Height (km)
Speed (km/s)
/
Latitude / Longitude
Inclination (degrees)
Orbital Period (minutes)
Azimuth
Elevation
Range (km)
Doppler Factor

Next 0 passes for location: London (51.5072 / 0.1276)

Sorry there are no passes over London.
COSMOS 1455